Location: Gesvres
(49.0440°N, 2.8518°E)
Time: 07:04:57
(UTC+00:00)

Cosmos 1844 Rocket - Pass Details

Date: 28 January 2023
Orbit: 825 x 843 km, 71.0° (Epoch: 24 March)

Event Time Altitude Azimuth Distance (km) Brightness Sun altitude
Rises 19:23:48 0° 331° (NNW) 3,378 6.3 -27.0°
Reaches altitude 10° 19:26:14 10° 332° (NNW) 2,440 5.4 -27.4°
Enters shadow 19:31:29 79° 336° (NNW) 847 2.6 -28.2°
